Location: Castle Hill Houses
(40.8186°N, 73.8497°W)
Time: 05:17:54
(UTC+00:00)

Cosmos 2263 Rocket - Pass Details

Date: 26 January 2020
Orbit: 822 x 849 km, 71.0° (Epoch: 26 February)

Event Time Altitude Azimuth Distance (km) Brightness Sun altitude
Rises 00:18:54 0° 199° (SSW) 3,341 5.6 -25.5°
Reaches altitude 10° 00:21:19 10° 199° (SSW) 2,413 4.8 -26.0°
Enters shadow 00:26:50 84° 116° (ESE) 835 2.0 -27.0°
